SCP
0 0 0 0 -0 0 0 0 0 0 0 0 -0 0 0 0 -0 0 0 0 0 0 0 0 0 0 0 0 0 0 0 0 0 0 0 0 0 0 0 0 0 0 0 0 0
0 0 0 0 0 0 0 0 0 0 0 0 0 0 0 0 0 0 0 0 0 0 0 0 0 0 0 0 0 0 0 0 0 0 0 0 0 0 0 0 0 0 0 0 1
0 0 0 0 0 0 0 0 0 0 0 0 0 0 0 0 0 0 0 0 0 0 0 0 0 0 0 0 0 0 0 0 0 0 0 0 0 0 0 0 0 0 -0 0 0
0 0 0 0 0 0 0 0 0 0 0 0 0 0 0 0 0 0 0 0 0 0 0 0 0 0 0 0 0 0 0 0 0 0 0 0 0 0 0 0 0 0 0 0 0
0 0 0 0 0 0 0 0 0 0 0 0 0 0 0 0 0 0 0 0 0 0 0 0 0 0 0 0 0 0 0 0 0 0 0 0 0 0 0 0 0 0 0 0 0
0 0 0 0 0 0 0 0 0 0 0 0 0 0 0 0 0 0 0 0 0 0 0 0 0 0 0 0 0 0 0 0 0 0 0 0 0 0 0 0 0 0 0 0 0
0 0 0 -0 0 0 0 0 0 0 -0 0 0 0 0 0 0 0 0 0 0 0 0 0 0 0 0 0 0 0 0 0 -0 0 0 0 0 0 0 0 0 0 0 0 0
0 0 0 -0 0 0 0 0 -0 -0 0 0 0 0 0 0 0 0 0 0 0 0 0 0 0 0 0 0 0 0 0 0 0 0 0 0 0 0 0 0 0 0 0 0 0
0 0 0 0 -0 0 0 0 -0 0 0 0 0 0 0 0 0 0 0 0 0 0 0 0 0 0 0 0 0 0 0 0 0 0 0 0 0 0 0 0 0 0 0 0 0
0 0 0 0 0 0 0 0 0 0 0 0 0 0 0 0 0 0 0 0 0 0 0 0 0 0 0 0 0 0 0 0 0 0 0 0 0 0 0 0 0 0 0 0 0
0 0 0 0 0 0 0 0 0 0 0 0 0 0 0 0 0 0 0 0 0 0 0 0 0 0 0 0 0 0 0 0 0 0 0 0 0 0 0 0 0 0 0 0 0
0 0 0 0 0 0 0 0 0 0 0 0 0 0 0 0 0 0 0 0 0 0 0 0 0 0 0 0 0 0 0 0 0 0 0 0 0 0 0 0 0 -0 0 0 0
0 0 0 0 0 0 0 0 0 0 0 0 0 0 0 0 0 0 0 0 0 0 0 0 0 0 0 0 0 0 0 0 0 0 0 0 0 0 0 0 0 0 0 0 0
0 0 0 0 0 0 0 0 0 0 0 0 0 0 0 0 0 0 0 0 0 0 0 0 0 0 0 0 0 0 0 0 0 0 0 0 0 0 0 0 0 0 -0 -0 0
0 0 0 0 0 0 0 0 0 0 0 0 0 0 0 0 0 0 0 0 0 0 0 0 0 0 0 0 0 0 0 0 0 0 0 0 0 0 0 0 0 0 -0 0 -0
0 0 0 0 0 0 0 0 0 0 0 0 0 0 0 0 0 0 0 0 0 0 0 0 0 0 0 0 0 0 0 0 0 0 0 0 0 0 0 0 -0 -0 0 -0 0
0 0 0 0 0 0 0 0 0 0 0 0 0 0 0 0 0 0 0 0 0 0 0 0 0 0 0 0 0 0 0 0 0 0 0 0 0 0 0 0 0 -0 -0 0 -0
0 0 0 0 0 0 0 0 0 0 0 0 0 0 0 0 0 0 0 0 0 0 0 0 0 0 0 0 0 0 0 0 0 0 0 0 0 0 0 0 0 -0 0 -0 -0
0 0 0 0 0 0 0 0 0 0 0 0 0 0 0 0 0 0 0 0 0 0 0 0 0 0 0 0 0 0 0 0 0 0 0 0 0 0 0 0 0 -0 0 0 0
0 0 0 0 0 0 0 0 0 0 0 0 0 0 0 0 0 0 0 0 0 0 0 0 0 0 0 0 0 0 0 0 0 0 0 0 0 0 0 0 0 0 0 0 0
0 0 0 0 0 0 0 0 0 0 0 0 0 0 0 0 0 0 0 0 0 0 0 0 0 0 0 0 0 0 0 0 0 0 0 0 0 0 0 0 0 -0 -0 0 0
0 0 0 0 0 0 0 0 0 0 0 0 0 0 0 0 0 0 0 0 0 0 0 0 0 0 0 0 0 0 0 0 0 0 0 0 0 0 0 0 0 -0 -0 -0 -0
0 0 0 0 0 0 0 0 0 0 0 0 0 0 0 0 0 0 0 0 0 0 0 0 0 0 0 0 0 0 0 0 0 0 0 0 0 0 0 0 0 0 0 -0 -0
0 0 0 0 0 0 0 0 0 0 0 0 0 0 0 0 0 0 0 0 0 0 0 0 0 0 0 0 0 0 0 0 0 0 0 0 0 0 0 0 0 0 0 0 0
0 0 0 0 0 0 0 0 0 0 0 0 0 0 0 0 0 0 0 0 0 0 0 0 0 0 0 0 0 0 0 0 0 0 0 0 0 0 0 0 0 0 0 0 0
0 0 0 0 0 0 0 0 0 0 0 0 0 0 0 0 0 0 0 0 0 0 0 0 0 0 0 0 0 0 0 0 0 0 0 0 0 0 0 0 0 0 0 0 0
0 0 0 0 0 0 0 0 0 0 0 0 0 0 0 0 0 0 0 0 0 0 0 0 0 0 0 0 0 0 0 0 0 0 0 0 0 0 0 0 0 0 0 0 0
Wind_Speed_500mb
11 12 12 13 15 16 17 18 20 21 21 23 22 21 19 14 16 18 18 26 22 24 26 18 15 20 8 5 4 4 6 8 13 14 20 50 28 43 35 31 17 36 50 11 10
9 11 13 14 16 18 18 17 18 20 22 22 21 18 16 13 19 16 27 22 18 20 25 29 29 24 2 2 1 5 5 4 14 19 20 33 38 46 45 44 40 34 40 19 8
11 12 13 14 13 15 16 17 19 20 20 20 16 15 12 10 9 9 23 16 16 17 26 22 21 11 8 3 8 11 6 22 19 28 30 31 36 42 39 27 42 48 53 14 17
13 14 13 13 14 15 16 18 20 20 20 19 13 12 11 12 3 14 17 13 14 20 20 21 24 13 7 9 12 10 12 28 26 32 31 26 41 39 45 47 55 68 66 42 24
12 14 13 13 13 14 16 18 19 19 20 13 10 9 5 7 6 16 13 12 18 21 23 26 26 19 14 14 22 14 18 31 40 43 40 39 37 33 50 56 55 63 66 59 45
11 12 13 14 14 15 17 19 18 18 15 9 7 7 10 2 5 12 9 9 12 15 16 19 15 15 11 14 8 26 33 38 29 31 31 27 24 30 46 58 56 57 57 65 60
11 12 13 14 15 16 17 18 18 16 9 6 5 5 7 4 6 11 8 9 10 12 10 12 11 13 18 15 27 25 13 26 22 30 18 14 12 7 40 47 40 40 50 59 54
13 12 13 14 15 16 17 18 17 11 6 5 4 9 2 4 4 10 8 10 15 11 10 8 8 7 3 18 12 8 8 15 26 26 19 28 13 15 44 43 39 44 41 34 28
15 13 14 14 14 15 17 16 11 6 5 3 4 6 5 2 5 10 3 4 12 9 9 5 5 5 6 6 2 4 11 26 27 22 16 12 23 26 47 37 39 44 46 47 45
18 14 14 13 13 14 14 11 7 4 4 7 7 3 4 1 10 6 6 8 1 9 5 0 4 6 5 10 7 17 11 16 26 20 12 13 20 13 33 36 43 44 37 42 36
18 15 14 12 11 11 10 4 6 5 5 3 1 3 3 9 1 7 12 6 4 9 6 8 4 3 11 9 6 16 15 18 24 14 8 21 14 18 27 34 34 34 42 37 25
19 15 14 11 9 7 5 1 4 4 4 4 6 0 3 4 3 3 11 11 6 13 1 7 5 13 6 11 12 6 15 11 20 22 3 12 13 15 28 32 39 36 37 36 35
22 17 14 10 7 4 2 0 1 2 7 4 5 1 3 4 4 6 8 2 14 15 7 7 9 6 9 14 9 10 6 7 12 10 3 12 2 10 11 23 37 39 43 39 46
28 19 13 7 6 3 2 1 0 1 3 9 6 3 1 2 2 4 4 3 5 9 12 12 6 5 11 17 12 11 1 13 10 4 5 6 4 6 11 16 20 33 47 49 46
21 19 12 12 5 4 3 1 2 5 4 3 6 4 3 1 1 3 4 3 8 9 6 1 6 10 9 6 11 14 18 21 2 5 6 5 5 5 16 17 29 26 34 35 44
21 20 15 13 12 7 4 1 3 7 9 4 3 6 8 6 7 3 4 1 7 8 11 22 3 4 8 19 16 20 21 12 8 6 4 10 1 6 19 18 22 35 38 31 38
24 23 20 17 11 11 7 4 5 5 4 6 6 8 3 4 7 1 2 5 5 5 4 7 15 6 3 16 9 16 17 3 4 3 2 12 10 4 16 17 17 26 41 46 42
26 25 23 22 14 15 12 4 3 3 7 0 5 6 5 1 5 3 4 5 6 8 6 6 3 2 7 4 5 8 8 3 4 6 6 13 8 9 4 13 20 28 37 41 34
30 29 25 24 19 19 8 3 9 8 10 14 4 6 5 4 3 4 3 9 7 9 7 8 4 7 3 5 7 8 7 7 8 3 2 4 6 5 10 14 29 30 31 32 35
39 28 25 25 24 22 4 8 4 4 4 7 9 11 8 6 8 8 5 5 3 3 6 5 7 5 3 8 7 2 6 3 4 6 4 2 6 6 7 9 16 21 28 32 32
42 18 15 30 28 11 6 9 6 8 5 6 6 8 6 9 5 4 9 9 1 6 5 6 3 2 7 7 6 3 1 5 2 3 4 1 3 7 13 9 12 18 23 24 23
43 5 22 43 10 5 6 10 4 10 9 4 4 5 7 10 10 8 1 9 9 4 4 7 4 6 5 9 2 1 5 7 2 2 2 4 4 12 16 17 19 18 15 17 19
40 12 38 49 8 7 4 4 5 9 9 9 9 9 7 10 4 8 10 9 8 7 4 6 2 6 4 3 8 5 5 5 9 2 7 1 4 11 21 19 19 15 13 14 18
28 9 12 23 16 7 10 8 7 15 4 10 7 7 7 6 5 6 5 8 8 5 3 2 2 7 3 3 3 5 3 5 7 4 4 8 11 14 16 16 22 17 12 13 17
24 12 22 13 20 12 19 17 12 11 9 10 7 14 13 10 12 10 10 11 9 9 7 4 4 4 14 15 7 9 13 13 13 14 6 9 11 24 19 18 28 19 14 14 13
33 18 20 18 22 33 20 18 23 11 17 10 9 22 16 10 11 14 12 11 9 14 10 6 3 4 8 12 10 12 17 17 19 17 16 14 16 19 40 39 34 27 19 14 13
37 33 31 26 18 21 15 14 27 25 24 19 25 12 18 14 19 15 19 12 8 14 13 10 8 5 8 7 7 14 17 28 13 13 15 14 12 19 17 32 43 39 30 21 14
Wind_Direction_500mb
338 338 337 334 332 332 336 338 339 342 347 349 353 359 359 13 51 36 9 359 4 9 23 13 359 4 19 15 355 302 284 290 307 325 351 354 359 338 321 302 299 296 299 293 256
322 320 322 324 328 329 335 336 336 338 344 348 352 360 7 26 85 15 5 0 11 16 28 8 358 8 5 27 171 275 264 264 15 355 359 335 340 330 332 322 313 297 283 286 255
312 319 326 325 324 326 330 331 334 339 341 345 353 359 14 64 80 345 352 4 17 21 26 349 347 339 327 336 36 342 252 341 334 340 328 315 310 311 306 300 297 295 294 319 333
312 320 330 327 327 330 332 333 335 337 339 343 354 12 47 57 49 319 348 4 27 27 9 15 10 9 322 0 19 312 294 328 320 324 322 303 300 287 275 275 279 284 289 295 293
310 318 324 329 329 329 331 331 333 334 336 347 360 16 56 59 63 342 352 16 22 25 8 10 26 359 10 352 337 255 324 328 314 306 299 292 286 288 290 288 280 275 275 286 277
304 313 315 323 326 327 329 329 332 331 335 349 5 19 57 176 307 347 356 12 16 24 15 21 10 351 305 316 326 342 317 300 294 283 278 269 291 298 282 286 279 282 277 276 278
287 306 312 315 322 325 327 327 326 328 334 349 18 71 53 135 350 355 1 360 1 359 13 358 12 14 342 324 345 304 300 291 218 353 325 4 276 254 357 330 324 271 273 278 272
279 294 308 307 314 323 328 328 326 326 337 344 50 94 360 213 353 11 350 328 347 346 349 337 16 7 322 302 273 268 244 355 345 354 340 346 297 18 347 334 330 331 353 349 318
270 289 303 305 314 325 328 331 331 331 350 352 108 92 111 300 23 323 345 332 312 333 353 355 22 290 261 334 358 80 317 334 329 353 331 359 316 329 322 346 352 353 339 329 325
256 279 299 306 317 327 330 338 335 327 24 78 91 138 151 208 294 326 322 334 306 303 304 175 260 267 211 22 349 316 327 310 323 325 343 306 293 321 330 10 360 352 352 325 319
251 270 295 302 316 328 331 3 357 349 54 253 58 300 100 308 201 13 334 317 289 252 287 158 300 65 17 354 322 303 282 308 315 319 323 360 16 28 6 3 0 351 348 338 338
245 267 287 286 304 324 311 180 245 216 263 280 230 274 281 354 253 135 31 310 241 279 327 194 247 66 312 276 310 302 307 309 299 333 106 343 17 353 8 352 357 3 345 352 9
247 262 271 270 292 301 355 256 194 229 260 142 203 185 152 75 353 86 46 33 282 295 273 282 358 20 320 301 326 316 199 257 243 309 95 332 92 7 340 349 360 3 353 15 22
240 252 256 253 283 295 301 327 346 89 6 142 187 183 76 83 152 258 35 90 227 308 333 274 73 315 318 294 17 311 125 321 319 316 323 28 295 24 356 341 355 356 5 10 19
239 231 232 210 196 207 262 311 26 96 318 71 132 181 190 280 309 222 346 132 284 320 320 298 360 343 298 41 351 260 328 296 92 285 236 357 289 10 5 345 331 337 349 2 29
243 221 213 214 219 225 206 131 87 47 249 117 127 163 203 175 149 316 234 309 265 287 233 263 332 273 321 307 262 278 281 240 219 220 141 284 89 28 8 338 325 334 344 0 25
233 213 208 206 208 192 171 99 40 178 2 198 184 198 240 130 158 300 269 171 314 343 225 228 205 134 262 303 122 356 320 339 265 339 4 344 52 62 355 341 337 359 8 17 27
219 210 205 208 200 176 150 60 165 175 206 156 155 162 241 131 122 135 241 226 155 325 299 314 285 349 15 51 333 310 327 81 306 341 319 45 12 343 59 100 70 58 30 24 21
206 204 205 199 187 170 132 128 222 198 164 160 135 195 6 184 279 176 151 354 37 35 305 345 93 138 68 351 349 351 57 355 300 33 337 105 107 164 41 52 56 49 41 31 26
196 193 217 193 180 162 94 255 234 293 97 182 184 172 169 229 197 157 134 54 68 28 332 52 296 73 121 205 214 208 332 275 281 347 332 137 102 110 86 41 58 46 51 36 31
190 170 216 186 167 161 198 229 248 215 194 175 198 150 217 149 196 171 125 150 197 153 261 331 116 244 214 36 31 315 65 309 244 144 291 224 142 97 106 82 87 78 61 53 43
171 151 177 165 147 186 196 193 230 174 201 239 298 241 197 163 178 198 225 99 140 271 254 62 37 277 32 120 151 314 344 281 275 239 163 266 196 124 125 124 120 104 86 79 69
158 121 165 168 187 206 176 244 243 171 192 191 212 211 201 177 176 194 144 88 136 243 328 142 77 313 291 157 194 231 123 285 277 265 237 230 200 137 137 136 132 123 109 82 70
149 135 158 198 235 210 146 199 217 213 252 185 187 149 155 199 204 145 148 138 194 222 173 41 94 247 265 34 18 302 289 242 280 293 278 234 151 177 178 158 151 152 131 98 79
168 186 175 175 222 205 174 166 155 172 216 207 206 213 176 189 183 196 179 118 191 198 201 232 193 228 286 293 280 264 274 277 254 259 244 329 186 191 186 168 168 164 139 109 85
157 150 165 163 155 176 189 204 176 164 153 212 181 201 208 177 176 196 164 156 175 170 202 168 150 97 284 265 248 265 251 254 252 246 260 269 281 168 173 163 161 164 158 139 119
181 165 170 171 147 165 209 189 191 148 202 188 182 172 205 202 99 90 86 94 131 162 198 150 139 111 263 332 321 305 228 219 205 200 199 206 219 149 160 162 168 169 167 161 141
Wind_Speed_850mb
11 12 12 13 15 16 17 18 20 21 21 23 22 21 19 14 16 18 18 26 22 24 26 18 15 20 8 5 4 4 6 8 13 14 20 50 28 43 35 31 17 36 50 11 10
9 11 13 14 16 18 18 17 18 20 22 22 21 18 16 13 19 16 27 22 18 20 25 29 29 24 2 2 1 5 5 4 14 19 20 33 38 46 45 44 40 34 40 19 8
11 12 13 14 13 15 16 17 19 20 20 20 16 15 12 10 9 9 23 16 16 17 26 22 21 11 8 3 8 11 6 22 19 28 30 31 36 42 39 27 42 48 53 14 17
13 14 13 13 14 15 16 18 20 20 20 19 13 12 11 12 3 14 17 13 14 20 20 21 24 13 7 9 12 10 12 28 26 32 31 26 41 39 45 47 55 68 66 42 24
12 14 13 13 13 14 16 18 19 19 20 13 10 9 5 7 6 16 13 12 18 21 23 26 26 19 14 14 22 14 18 31 40 43 40 39 37 33 50 56 55 63 66 59 45
11 12 13 14 14 15 17 19 18 18 15 9 7 7 10 2 5 12 9 9 12 15 16 19 15 15 11 14 8 26 33 38 29 31 31 27 24 30 46 58 56 57 57 65 60
11 12 13 14 15 16 17 18 18 16 9 6 5 5 7 4 6 11 8 9 10 12 10 12 11 13 18 15 27 25 13 26 22 30 18 14 12 7 40 47 40 40 50 59 54
13 12 13 14 15 16 17 18 17 11 6 5 4 9 2 4 4 10 8 10 15 11 10 8 8 7 3 18 12 8 8 15 26 26 19 28 13 15 44 43 39 44 41 34 28
15 13 14 14 14 15 17 16 11 6 5 3 4 6 5 2 5 10 3 4 12 9 9 5 5 5 6 6 2 4 11 26 27 22 16 12 23 26 47 37 39 44 46 47 45
18 14 14 13 13 14 14 11 7 4 4 7 7 3 4 1 10 6 6 8 1 9 5 0 4 6 5 10 7 17 11 16 26 20 12 13 20 13 33 36 43 44 37 42 36
18 15 14 12 11 11 10 4 6 5 5 3 1 3 3 9 1 7 12 6 4 9 6 8 4 3 11 9 6 16 15 18 24 14 8 21 14 18 27 34 34 34 42 37 25
19 15 14 11 9 7 5 1 4 4 4 4 6 0 3 4 3 3 11 11 6 13 1 7 5 13 6 11 12 6 15 11 20 22 3 12 13 15 28 32 39 36 37 36 35
22 17 14 10 7 4 2 0 1 2 7 4 5 1 3 4 4 6 8 2 14 15 7 7 9 6 9 14 9 10 6 7 12 10 3 12 2 10 11 23 37 39 43 39 46
28 19 13 7 6 3 2 1 0 1 3 9 6 3 1 2 2 4 4 3 5 9 12 12 6 5 11 17 12 11 1 13 10 4 5 6 4 6 11 16 20 33 47 49 46
21 19 12 12 5 4 3 1 2 5 4 3 6 4 3 1 1 3 4 3 8 9 6 1 6 10 9 6 11 14 18 21 2 5 6 5 5 5 16 17 29 26 34 35 44
21 20 15 13 12 7 4 1 3 7 9 4 3 6 8 6 7 3 4 1 7 8 11 22 3 4 8 19 16 20 21 12 8 6 4 10 1 6 19 18 22 35 38 31 38
24 23 20 17 11 11 7 4 5 5 4 6 6 8 3 4 7 1 2 5 5 5 4 7 15 6 3 16 9 16 17 3 4 3 2 12 10 4 16 17 17 26 41 46 42
26 25 23 22 14 15 12 4 3 3 7 0 5 6 5 1 5 3 4 5 6 8 6 6 3 2 7 4 5 8 8 3 4 6 6 13 8 9 4 13 20 28 37 41 34
30 29 25 24 19 19 8 3 9 8 10 14 4 6 5 4 3 4 3 9 7 9 7 8 4 7 3 5 7 8 7 7 8 3 2 4 6 5 10 14 29 30 31 32 35
39 28 25 25 24 22 4 8 4 4 4 7 9 11 8 6 8 8 5 5 3 3 6 5 7 5 3 8 7 2 6 3 4 6 4 2 6 6 7 9 16 21 28 32 32
42 18 15 30 28 11 6 9 6 8 5 6 6 8 6 9 5 4 9 9 1 6 5 6 3 2 7 7 6 3 1 5 2 3 4 1 3 7 13 9 12 18 23 24 23
43 5 22 43 10 5 6 10 4 10 9 4 4 5 7 10 10 8 1 9 9 4 4 7 4 6 5 9 2 1 5 7 2 2 2 4 4 12 16 17 19 18 15 17 19
40 12 38 49 8 7 4 4 5 9 9 9 9 9 7 10 4 8 10 9 8 7 4 6 2 6 4 3 8 5 5 5 9 2 7 1 4 11 21 19 19 15 13 14 18
28 9 12 23 16 7 10 8 7 15 4 10 7 7 7 6 5 6 5 8 8 5 3 2 2 7 3 3 3 5 3 5 7 4 4 8 11 14 16 16 22 17 12 13 17
24 12 22 13 20 12 19 17 12 11 9 10 7 14 13 10 12 10 10 11 9 9 7 4 4 4 14 15 7 9 13 13 13 14 6 9 11 24 19 18 28 19 14 14 13
33 18 20 18 22 33 20 18 23 11 17 10 9 22 16 10 11 14 12 11 9 14 10 6 3 4 8 12 10 12 17 17 19 17 16 14 16 19 40 39 34 27 19 14 13
37 33 31 26 18 21 15 14 27 25 24 19 25 12 18 14 19 15 19 12 8 14 13 10 8 5 8 7 7 14 17 28 13 13 15 14 12 19 17 32 43 39 30 21 14
Wind_Direction_850mb
338 338 337 334 332 332 336 338 339 342 347 349 353 359 359 13 51 36 9 359 4 9 23 13 359 4 19 15 355 302 284 290 307 325 351 354 359 338 321 302 299 296 299 293 256
322 320 322 324 328 329 335 336 336 338 344 348 352 360 7 26 85 15 5 0 11 16 28 8 358 8 5 27 171 275 264 264 15 355 359 335 340 330 332 322 313 297 283 286 255
312 319 326 325 324 326 330 331 334 339 341 345 353 359 14 64 80 345 352 4 17 21 26 349 347 339 327 336 36 342 252 341 334 340 328 315 310 311 306 300 297 295 294 319 333
312 320 330 327 327 330 332 333 335 337 339 343 354 12 47 57 49 319 348 4 27 27 9 15 10 9 322 0 19 312 294 328 320 324 322 303 300 287 275 275 279 284 289 295 293
310 318 324 329 329 329 331 331 333 334 336 347 360 16 56 59 63 342 352 16 22 25 8 10 26 359 10 352 337 255 324 328 314 306 299 292 286 288 290 288 280 275 275 286 277
304 313 315 323 326 327 329 329 332 331 335 349 5 19 57 176 307 347 356 12 16 24 15 21 10 351 305 316 326 342 317 300 294 283 278 269 291 298 282 286 279 282 277 276 278
287 306 312 315 322 325 327 327 326 328 334 349 18 71 53 135 350 355 1 360 1 359 13 358 12 14 342 324 345 304 300 291 218 353 325 4 276 254 357 330 324 271 273 278 272
279 294 308 307 314 323 328 328 326 326 337 344 50 94 360 213 353 11 350 328 347 346 349 337 16 7 322 302 273 268 244 355 345 354 340 346 297 18 347 334 330 331 353 349 318
270 289 303 305 314 325 328 331 331 331 350 352 108 92 111 300 23 323 345 332 312 333 353 355 22 290 261 334 358 80 317 334 329 353 331 359 316 329 322 346 352 353 339 329 325
256 279 299 306 317 327 330 338 335 327 24 78 91 138 151 208 294 326 322 334 306 303 304 175 260 267 211 22 349 316 327 310 323 325 343 306 293 321 330 10 360 352 352 325 319
251 270 295 302 316 328 331 3 357 349 54 253 58 300 100 308 201 13 334 317 289 252 287 158 300 65 17 354 322 303 282 308 315 319 323 360 16 28 6 3 0 351 348 338 338
245 267 287 286 304 324 311 180 245 216 263 280 230 274 281 354 253 135 31 310 241 279 327 194 247 66 312 276 310 302 307 309 299 333 106 343 17 353 8 352 357 3 345 352 9
247 262 271 270 292 301 355 256 194 229 260 142 203 185 152 75 353 86 46 33 282 295 273 282 358 20 320 301 326 316 199 257 243 309 95 332 92 7 340 349 360 3 353 15 22
240 252 256 253 283 295 301 327 346 89 6 142 187 183 76 83 152 258 35 90 227 308 333 274 73 315 318 294 17 311 125 321 319 316 323 28 295 24 356 341 355 356 5 10 19
239 231 232 210 196 207 262 311 26 96 318 71 132 181 190 280 309 222 346 132 284 320 320 298 360 343 298 41 351 260 328 296 92 285 236 357 289 10 5 345 331 337 349 2 29
243 221 213 214 219 225 206 131 87 47 249 117 127 163 203 175 149 316 234 309 265 287 233 263 332 273 321 307 262 278 281 240 219 220 141 284 89 28 8 338 325 334 344 0 25
233 213 208 206 208 192 171 99 40 178 2 198 184 198 240 130 158 300 269 171 314 343 225 228 205 134 262 303 122 356 320 339 265 339 4 344 52 62 355 341 337 359 8 17 27
219 210 205 208 200 176 150 60 165 175 206 156 155 162 241 131 122 135 241 226 155 325 299 314 285 349 15 51 333 310 327 81 306 341 319 45 12 343 59 100 70 58 30 24 21
206 204 205 199 187 170 132 128 222 198 164 160 135 195 6 184 279 176 151 354 37 35 305 345 93 138 68 351 349 351 57 355 300 33 337 105 107 164 41 52 56 49 41 31 26
196 193 217 193 180 162 94 255 234 293 97 182 184 172 169 229 197 157 134 54 68 28 332 52 296 73 121 205 214 208 332 275 281 347 332 137 102 110 86 41 58 46 51 36 31
190 170 216 186 167 161 198 229 248 215 194 175 198 150 217 149 196 171 125 150 197 153 261 331 116 244 214 36 31 315 65 309 244 144 291 224 142 97 106 82 87 78 61 53 43
171 151 177 165 147 186 196 193 230 174 201 239 298 241 197 163 178 198 225 99 140 271 254 62 37 277 32 120 151 314 344 281 275 239 163 266 196 124 125 124 120 104 86 79 69
158 121 165 168 187 206 176 244 243 171 192 191 212 211 201 177 176 194 144 88 136 243 328 142 77 313 291 157 194 231 123 285 277 265 237 230 200 137 137 136 132 123 109 82 70
149 135 158 198 235 210 146 199 217 213 252 185 187 149 155 199 204 145 148 138 194 222 173 41 94 247 265 34 18 302 289 242 280 293 278 234 151 177 178 158 151 152 131 98 79
168 186 175 175 222 205 174 166 155 172 216 207 206 213 176 189 183 196 179 118 191 198 201 232 193 228 286 293 280 264 274 277 254 259 244 329 186 191 186 168 168 164 139 109 85
157 150 165 163 155 176 189 204 176 164 153 212 181 201 208 177 176 196 164 156 175 170 202 168 150 97 284 265 248 265 251 254 252 246 260 269 281 168 173 163 161 164 158 139 119
181 165 170 171 147 165 209 189 191 148 202 188 182 172 205 202 99 90 86 94 131 162 198 150 139 111 263 332 321 305 228 219 205 200 199 206 219 149 160 162 168 169 167 161 141